| DS18B20 | SHTC3 | PZEM-004T | WiFi | ||||||||
|---|---|---|---|---|---|---|---|---|---|---|---|
| ID | Date d/m/Y & Time | data1 สูง | data2 ต่ำ | data3 นอก | temp pcb | hum pcb | Volt | Amp | Watt | rssi | Time |
| 16157 | 26/08/2026 12:23:00 | 33.4  | 31.3  | 34.9  | 33.9  | 60.5  | 236.3  | 0.04  | 4.5  | -79  | 12:23 |
| 16156 | 26/08/2026 12:18:15 | 33.4  | 31.2  | 34.9  | 34.0  | 60.6  | 236.2  | 0.04  | 4.6  | -79  | 12:18 |
| 16155 | 26/08/2026 12:13:31 | 33.2  | 31.2  | 34.7  | 33.9  | 60.6  | 236.6  | 0.03  | 4.6  | -82  | 12:13 |
| 16154 | 26/08/2026 12:08:47 | 33.2  | 31.1  | 34.7  | 33.9  | 60.5  | 236.6  | 0.03  | 4.6  | -82  | 12:08 |
| 16153 | 26/08/2026 12:04:03 | 33.1  | 31.1  | 35.0  | 33.6  | 60.4  | 236.9  | 0.04  | 4.5  | -85  | 12:04 |
| 16152 | 26/08/2026 11:59:19 | 33.0  | 31.0  | 34.9  | 33.8  | 60.8  | 236.4  | 0.04  | 4.6  | -82  | 11:59 |
| 16151 | 26/08/2026 11:54:36 | 32.9  | 30.9  | 34.4  | 33.6  | 60.6  | 235.9  | 0.04  | 4.5  | -80  | 11:54 |
| 16150 | 26/08/2026 11:49:51 | 32.8  | 30.9  | 34.4  | 33.5  | 60.7  | 236.3  | 0.04  | 4.6  | -85  | 11:49 |
| 16149 | 26/08/2026 11:45:08 | 32.8  | 30.8  | 34.2  | 33.6  | 60.6  | 235.7  | 0.03  | 4.5  | -79  | 11:45 |
| 16148 | 26/08/2026 11:40:23 | 32.7  | 30.8  | 34.2  | 33.5  | 60.5  | 235.2  | 0.03  | 4.5  | -82  | 11:40 |
| 16147 | 26/08/2026 11:35:40 | 32.6  | 30.7  | 34.0  | 33.3  | 60.9  | 235.6  | 0.03  | 4.5  | -90  | 11:35 |
| 16146 | 26/08/2026 11:30:53 | 32.6  | 30.6  | 33.9  | 33.2  | 60.6  | 235.4  | 0.03  | 4.5  | -89  | 11:30 |
| 16145 | 26/08/2026 11:26:10 | 32.5  | 30.6  | 33.9  | 33.3  | 60.8  | 235.2  | 0.03  | 4.5  | -84  | 11:26 |
| 16144 | 26/08/2026 11:21:26 | 32.4  | 30.5  | 34.1  | 33.1  | 60.8  | 235.1  | 0.03  | 4.5  | -92  | 11:21 |
| 16143 | 26/08/2026 11:16:39 | 32.2  | 30.4  | 34.0  | 33.0  | 60.9  | 235.5  | 0.04  | 4.5  | -92  | 11:16 |
| 16142 | 26/08/2026 11:11:56 | 32.2  | 30.3  | 34.0  | 32.8  | 61.1  | 234.7  | 0.03  | 4.5  | -90  | 11:11 |
| 16141 | 26/08/2026 11:07:10 | 32.1  | 30.2  | 33.7  | 33.0  | 60.6  | 235.2  | 0.03  | 4.5  | -92  | 11:07 |
| 16140 | 26/08/2026 11:02:22 | 31.9  | 30.2  | 33.6  | 32.6  | 60.7  | 235.5  | 0.04  | 4.6  | -90  | 11:02 |
| 16139 | 26/08/2026 10:52:48 | 31.8  | 30.1  | 33.5  | 32.6  | 60.9  | 234.7  | 0.04  | 4.5  | -92  | 10:52 |
| 16138 | 26/08/2026 10:48:04 | 31.7  | 30.0  | 33.2  | 32.7  | 61.0  | 235.2  | 0.04  | 4.6  | -83  | 10:48 |
| 16137 | 26/08/2026 10:43:18 | 31.6  | 29.9  | 32.8  | 32.5  | 60.9  | 235.2  | 0.04  | 4.6  | -91  | 10:43 |
| 16136 | 26/08/2026 10:38:29 | 31.6  | 29.9  | 32.5  | 32.5  | 61.0  | 235.1  | 0.04  | 4.6  | -91  | 10:38 |
| 16135 | 26/08/2026 10:33:46 | 31.6  | 29.8  | 32.7  | 32.5  | 61.1  | 233.9  | 0.04  | 4.6  | -91  | 10:33 |
| 16134 | 26/08/2026 10:29:01 | 31.5  | 29.8  | 32.9  | 32.5  | 61.2  | 235.4  | 0.04  | 4.6  | -89  | 10:29 |